Location: Rockford
(42.2710°N, 89.0940°W)
Time: 05:36:38
(UTC-05:00)

SPOT 5 - Visible Passes

Search period start: 26 July 2017 00:00
Search period end: 05 August 2017 00:00
Orbit: 624 x 815 km, 98.4° (Epoch: 25 July)

Date Brightness Start Highest point End Pass type
(mag) Time Alt. Az. Time Alt. Az. Time Alt. Az.
26 Jul 3.1 21:56:52 21° SSE 22:00:30 73° ENE 22:05:47 10° N visible
26 Jul 5.4 23:36:06 10° WSW 23:39:00 15° W 23:41:59 10° NW visible
27 Jul 4.3 21:06:22 10° ESE 21:10:47 27° ENE 21:15:08 10° N visible
27 Jul 4.0 22:45:33 22° SSW 22:48:35 42° W 22:53:36 10° NNW visible
28 Jul 3.1 21:55:01 22° SSE 21:58:33 70° ENE 22:03:46 10° N visible
28 Jul 5.4 23:34:16 11° WSW 23:37:00 16° W 23:40:07 10° NW visible
29 Jul 4.3 21:04:30 10° ESE 21:08:50 26° ENE 21:13:05 10° N visible
29 Jul 4.0 22:43:43 23° SSW 22:46:37 44° W 22:51:37 10° NNW visible
30 Jul 3.1 21:53:11 22° SSE 21:56:34 67° ENE 22:01:45 10° N visible
30 Jul 5.3 23:32:26 12° WSW 23:35:01 16° W 23:38:14 10° NW visible
31 Jul 4.4 21:02:38 10° ESE 21:06:52 25° ENE 21:11:01 10° NNE visible
31 Jul 3.9 22:41:54 25° SSW 22:44:38 46° W 22:49:39 10° NNW visible
01 Aug 3.1 21:51:22 23° SSE 21:54:37 64° ENE 21:59:44 10° N visible
01 Aug 5.3 23:30:36 13° WSW 23:33:00 17° W 23:36:20 10° NW visible
02 Aug 4.4 21:00:50 10° ESE 21:04:54 24° ENE 21:08:56 10° NNE visible
02 Aug 3.8 22:40:04 27° SSW 22:42:40 47° W 22:47:39 10° NNW visible
03 Aug 3.2 21:49:32 24° SE 21:52:39 61° ENE 21:57:42 10° N visible
03 Aug 5.2 23:28:47 14° WSW 23:31:00 17° W 23:34:24 10° NW visible
04 Aug 4.4 20:59:01 10° ESE 21:02:57 22° ENE 21:06:50 10° NNE visible
04 Aug 3.7 22:38:16 29° SSW 22:40:41 49° W 22:45:39 10° NNW visible
